sat.trackr.live / text

‹ back to catalog

STARLINK-33726

NORAD 63437 · 2025-069E

PAYLOAD ACTIVE UNKNOWN

§ Identity

Operator
Country
US
Launch date
2025-04-04
Launch site
AFWTR
Launch vehicle
Mass (kg)
RCS (m²)

Purposes: comms

External: N2YO · Heavens-Above · Gunter

§ Orbital elements

Epoch: 2026-09-20T22:00:03.000096Z

Period
93.79 min
Inclination
53.1606°
Eccentricity
0.0001570
Mean motion
15.35396047 rev/d
Perigee alt
458.7 km
Apogee alt
460.8 km
Semi-major
6,837.9 km
B*
1.2277e-3
RAAN
297.6673°
Arg perigee
63.1311°
Mean anomaly
77.6909°
Rev number
592

§ Raw data

STARLINK-337261 63437U 25069E   26263.91670139  .00042683  00000+0  12277-2 0  99932 63437  53.1606 297.6673 0001570  63.1311  77.6909 15.35396047  5921

JSON: /api/v1/satellites/63437 · /tle

For live sub-satellite position, see the globe view (requires WebGL).

§ Visibility from observer

Set your observer location to see the next 7 days of passes ≥ 10°. The values pass through the URL so the page stays shareable.

No JS? Fill the form by hand. The geolocation button needs JavaScript.